Погода в Хоробуте

Россия / Республика Саха (Якутия)     61°50′00″N   130°45′13″E
темп.,
°C
ветер,
м/с
пор.,
м/с
влажн.,
%
обл.,
%
осадки,
мм/ч
давл.,
гПа
погр.,
м
27 февраля, сб
сб2700:00−31вюв229823 0.0 103322
03:00−32вюв229815 0.0 103119
06:00−32вюв259845 0.0 103191
09:00−30вюв259670 0.0 1029168
12:00−24в249334 0.0 1028318
15:00−22в479265 0.0 1023397
18:00−25всв3695100 0.0 1023172
21:00−26всв2697100 0.0 1020164
28 февраля, вс
вс2800:00−28св2396100 0.0 101870
03:00−29ссв2395100 0.0 101571
06:00−29с2494100 0.0 1016110
09:00−29зсз2495100 0.0 1017157
12:00−26зсз3693100 0.0 1019379
15:00−23зсз3694100 0.1 1020670
18:00−25з4797100 0.4 1023671
21:00−26зсз3896100 0.6 1024593
1 марта, пн
пн100:00−27з3797100 0.1 1025468
03:00−27з3797100 0.2 1025469
06:00−28з3797100 0.1 1026408
09:00−28з3694100 0.1 1026629
12:00−26з3588100 0.1 1026955
15:00−25зсз3587100 0.1 10261059
18:00−28з2297100 0.1 102767
21:00−30з2299100 0.1 102729
2 марта, вт
вт200:00−32з22100100 0.0 102719
03:00−34з12100100 0.1 102719
06:00−35зюз1210098 0.0 102719
09:00−33зюз139996 0.0 102798
12:00−28з239198 0.0 1026488
15:00−27зсз238999 0.0 1026624
18:00−29зсз1196100 0.0 102619
21:00−30зюз0097100 0.0 102619
3 марта, ср
ср300:00−30зюз1198100 0.0 102619
03:00−30зсз1198100 0.1 102519
06:00−30зсз1198100 0.1 102419
09:00−30зсз1197100 0.1 1024122
12:00−27сз1289100 0.0 1022526
15:00−27сз2389100 0.1 1020667
18:00−29зсз2297100 0.1 101956
21:00−31зсз2299100 0.1 101922